Vorticity
12 11 1 5 7 -1 1 -1 10 9 22 12 3 8 7 4 3 9 8 8 5 4 6 9 8 5 8 19 53 14 -3 17 6 -3 11 3 23 25 5 39 -26 50 1 0
14 8 11 2 7 8 5 -0 1 10 10 10 5 8 10 8 6 8 10 9 7 -16 10 6 9 6 8 18 31 23 9 6 4 4 9 -3 2 16 18 3 10 30 2 7
4 8 19 9 9 9 7 8 4 4 16 5 13 5 14 9 6 5 3 5 9 -1 12 5 9 8 7 12 40 -17 10 23 24 -2 9 11 11 17 23 10 13 14 3 10
45 5 -32 36 1 8 7 10 9 0 2 6 28 12 13 19 24 3 3 14 9 9 5 5 10 8 8 8 18 23 3 14 6 15 -2 0 7 7 9 23 -5 -4 14 2
5 21 25 -14 23 2 2 5 14 11 14 4 8 -1 5 17 14 11 18 12 13 9 -4 7 9 7 8 7 6 15 20 23 -2 2 3 14 1 0 22 11 28 -3 16 4
18 -27 16 36 -1 9 13 7 21 9 10 18 6 1 21 32 29 31 19 12 9 16 5 6 6 11 8 7 6 7 13 18 21 19 27 12 10 -20 26 -0 9 14 24 23
-12 17 13 3 34 12 3 12 12 20 27 -2 8 22 -3 1 -4 -13 18 7 12 24 4 6 4 8 7 10 7 7 7 9 16 23 24 17 13 16 6 10 1 14 24 14
37 41 -0 28 15 10 28 11 -47 1 15 19 10 15 15 28 19 13 7 3 11 22 2 4 10 5 6 6 9 7 8 6 8 12 23 27 31 -9 10 18 17 26 6 26
20 -0 20 10 9 13 2 -1 -4 -39 2 33 22 -17 -4 -5 2 4 13 15 17 20 5 7 11 2 3 6 8 8 7 7 6 6 12 17 18 23 19 22 10 10 6 15
4 1 25 20 2 22 0 34 11 6 20 7 21 -1 -2 26 20 1 13 5 17 22 17 9 7 13 5 5 5 4 6 6 4 5 6 5 9 13 14 14 18 25 30 17
26 -18 -21 19 4 19 1 8 19 4 -29 5 2 17 38 8 -8 20 1 9 20 12 26 10 11 11 3 5 5 5 9 6 5 6 4 5 7 5 6 9 8 8 14 18
35 -3 23 32 2 20 6 12 17 -10 26 16 -21 2 16 12 3 2 -1 -1 9 16 13 16 6 11 10 12 7 4 6 4 7 8 6 6 2 3 2 4 8 5 5 7
12 38 3 22 32 30 7 11 4 1 -6 3 8 15 -8 19 -19 -4 8 4 8 6 13 13 14 12 15 10 7 -0 2 7 4 5 6 8 7 4 4 3 2 2 4 5
12 18 21 -23 1 5 17 25 14 13 14 9 -14 10 -14 -14 4 13 -9 7 7 9 2 10 9 17 9 17 20 4 4 11 13 9 4 1 5 7 9 9 7 5 5 5
19 24 -3 18 6 22 18 18 16 14 7 8 17 16 12 18 9 8 16 -11 4 7 -2 11 7 7 7 13 12 9 5 3 6 5 7 8 16 4 0 1 5 9 13 11
5 5 23 41 8 1 15 6 -8 -7 6 11 11 8 7 4 9 6 10 21 18 8 10 2 15 21 13 9 -5 12 19 10 8 2 11 18 18 17 15 22 17 13 9 8
9 7 -4 23 18 17 20 4 12 31 11 13 6 23 32 12 15 11 10 8 4 -5 5 -13 -3 6 12 5 9 10 4 2 19 10 -0 5 6 15 15 10 8 6 10 15
2 7 6 -3 16 9 29 68 9 -16 12 20 13 5 4 7 9 8 15 13 34 25 10 1 6 6 5 7 11 10 10 11 0 11 8 7 5 8 -1 -1 -1 -2 -1 1
8 4 4 8 11 -5 35 11 17 13 4 4 14 9 2 9 19 3 11 -2 5 16 30 7 3 4 5 4 -3 10 15 16 18 13 2 10 14 1 3 1 2 -1 0 2
11 6 -9 16 6 3 15 20 3 11 -7 14 10 4 22 5 12 -22 3 5 11 8 6 15 35 13 7 -0 10 21 8 -2 4 6 30 20 -2 10 17 -5 -6 4 3 4
10 10 4 1 6 18 23 8 3 6 25 5 7 7 10 -3 1 5 3 11 15 15 8 8 17 17 18 0 14 4 -8 -3 -6 -3 6 25 25 10 15 20 15 13 8 5
16 -16 26 10 7 2 9 20 5 6 8 -1 -7 10 0 1 1 5 4 5 3 12 7 7 8 14 23 21 5 8 -8 10 26 4 -14 -7 31 24 22 6 -2 25 19 18
18 0 4 13 48 11 18 19 13 1 -4 6 -6 3 5 12 4 22 13 14 15 5 9 19 8 12 12 12 17 19 19 17 19 4 16 4 16 1 10 -2 9 19 14 14
6 -4 11 3 18 12 16 13 1 2 4 8 13 10 7 6 9 9 15 10 4 2 -5 -6 11 26 3 22 39 13 5 5 15 21 12 9 7 23 17 19 30 11 27 26
19 15 15 4 -7 4 12 2 -8 4 7 7 6 9 8 10 12 8 12 16 15 3 11 10 9 14 2 15 -13 31 31 27 23 20 27 29 17 28 31 19 17 37 31 12
3 16 10 12 8 5 -6 -0 -1 1 -3 5 8 5 13 9 10 17 10 12 9 16 18 10 9 12 6 8 -3 -2 10 40 15 10 4 11 22 18 16 8 5 -5 -1 5
Height
3057 3059 3053 3060 3064 3067 3067 3064 3064 3066 3067 3068 3068 3068 3068 3069 3068 3069 3070 3071 3069 3066 3065 3062 3060 3058 3055 3050 3046 3050 3055 3057 3060 3063 3065 3068 3071 3075 3078 3083 3089 3092 3098 3108
3053 3044 3054 3060 3062 3064 3064 3063 3063 3064 3064 3065 3065 3063 3063 3064 3064 3064 3065 3066 3066 3063 3062 3060 3059 3057 3054 3050 3048 3051 3055 3057 3060 3064 3065 3069 3072 3075 3080 3084 3088 3093 3099 3105
3041 3047 3051 3053 3055 3057 3057 3058 3060 3061 3060 3062 3061 3058 3057 3058 3059 3059 3061 3062 3063 3061 3059 3058 3057 3056 3055 3052 3051 3052 3054 3057 3059 3062 3064 3067 3071 3074 3076 3080 3086 3090 3096 3102
3037 3041 3045 3047 3048 3051 3050 3055 3057 3058 3059 3056 3055 3049 3049 3049 3050 3053 3054 3056 3058 3058 3056 3056 3055 3055 3054 3053 3051 3052 3054 3056 3058 3061 3063 3067 3070 3072 3076 3080 3084 3088 3093 3099
3030 3037 3040 3041 3042 3047 3045 3053 3053 3055 3055 3054 3052 3050 3044 3044 3045 3047 3049 3050 3052 3054 3052 3053 3053 3053 3053 3052 3051 3052 3052 3055 3057 3059 3062 3064 3068 3071 3074 3077 3081 3085 3090 3094
3023 3025 3031 3034 3039 3042 3045 3049 3050 3051 3051 3047 3047 3047 3039 3037 3039 3043 3045 3047 3048 3050 3049 3050 3051 3051 3051 3051 3051 3051 3051 3052 3053 3055 3057 3062 3066 3068 3070 3074 3078 3082 3086 3090
3024 3020 3025 3028 3032 3036 3039 3044 3043 3044 3041 3038 3039 3040 3037 3036 3039 3042 3043 3044 3044 3045 3045 3047 3049 3050 3050 3050 3050 3051 3051 3052 3051 3052 3054 3058 3061 3065 3069 3072 3075 3076 3082 3084
3019 3022 3020 3020 3024 3027 3030 3035 3030 3029 3030 3029 3032 3032 3032 3034 3037 3038 3040 3042 3042 3042 3041 3044 3045 3047 3048 3049 3049 3050 3051 3052 3051 3052 3052 3054 3057 3060 3064 3067 3071 3072 3076 3081
3016 3015 3015 3015 3021 3024 3027 3025 3030 3029 3031 3024 3023 3029 3030 3032 3035 3036 3037 3038 3038 3038 3038 3040 3042 3044 3046 3047 3048 3049 3050 3051 3052 3053 3053 3053 3055 3058 3060 3063 3066 3069 3072 3075
3010 3014 3010 3011 3017 3019 3018 3025 3027 3027 3028 3027 3021 3021 3021 3027 3031 3033 3035 3036 3036 3036 3036 3036 3039 3041 3044 3046 3047 3048 3049 3050 3051 3052 3053 3054 3054 3056 3058 3060 3061 3063 3067 3071
3010 3014 3009 3010 3007 3012 3016 3015 3018 3022 3023 3021 3020 3020 3020 3025 3029 3031 3033 3034 3034 3033 3033 3034 3036 3039 3041 3043 3044 3046 3047 3048 3049 3050 3051 3052 3053 3054 3055 3057 3059 3061 3063 3066
3007 3008 3005 3003 3004 3007 3010 3011 3013 3015 3017 3018 3020 3023 3022 3024 3027 3030 3032 3033 3032 3032 3032 3033 3034 3036 3037 3039 3041 3043 3045 3046 3047 3048 3049 3050 3051 3052 3054 3056 3057 3059 3060 3062
3004 3005 3004 3002 3001 3002 3004 3007 3010 3014 3017 3020 3019 3018 3019 3023 3024 3027 3030 3031 3032 3032 3031 3032 3032 3033 3034 3036 3038 3039 3041 3042 3044 3045 3046 3048 3049 3050 3052 3053 3054 3056 3057 3059
3001 3000 3000 2996 2996 2998 2999 3000 3004 3009 3012 3014 3015 3016 3017 3020 3023 3025 3027 3028 3030 3031 3031 3032 3031 3031 3031 3032 3033 3036 3037 3039 3040 3041 3042 3043 3044 3047 3048 3049 3050 3052 3053 3054
2998 2996 2994 2995 2996 2995 2996 2998 3000 3003 3007 3009 3012 3013 3015 3017 3020 3022 3022 3024 3026 3028 3029 3029 3029 3029 3028 3029 3030 3032 3033 3034 3036 3037 3038 3038 3040 3041 3042 3043 3044 3046 3047 3047
2997 2996 2992 2993 2994 2994 2995 2996 2999 3001 3004 3007 3009 3011 3013 3016 3016 3017 3018 3020 3021 3023 3024 3023 3023 3025 3027 3026 3026 3027 3028 3029 3030 3031 3033 3033 3033 3034 3035 3036 3037 3038 3039 3041
2997 2997 2994 2991 2993 2995 2995 2994 2997 2999 3002 3004 3006 3008 3009 3012 3011 3013 3013 3013 3011 3013 3015 3016 3017 3018 3019 3021 3021 3021 3022 3022 3023 3025 3027 3027 3027 3027 3029 3030 3031 3032 3033 3033
2994 2995 2996 2994 2993 2995 2990 2987 2993 2997 2999 3001 3003 3007 3008 3008 3009 3009 3007 3007 3007 3007 3009 3009 3010 3011 3012 3013 3014 3015 3015 3015 3017 3018 3019 3020 3020 3021 3022 3023 3024 3025 3025 3025
2990 2993 2995 2995 2994 2992 2990 2990 2992 2993 2997 2999 3002 3003 3004 3005 3006 3006 3004 3004 3004 3003 3002 3002 3003 3005 3006 3007 3007 3009 3009 3009 3009 3010 3011 3013 3013 3014 3014 3014 3016 3016 3015 3016
2987 2990 2995 2994 2993 2992 2991 2990 2990 2994 2995 2997 2999 3000 3000 3001 3004 3004 3001 2999 2999 2998 2998 2997 2996 2996 2999 3000 3001 3002 3002 3001 3002 3002 3001 3002 3003 3004 3004 3006 3006 3007 3006 3006
2981 2986 2988 2990 2989 2989 2988 2989 2990 2995 2999 2996 2997 2996 2995 2997 2998 2996 2996 2996 2994 2992 2992 2993 2991 2989 2989 2990 2992 2994 2993 2993 2993 2993 2993 2992 2991 2991 2992 2993 2993 2995 2994 2995
2977 2982 2985 2988 2988 2989 2987 2988 2991 2991 2991 2992 2992 2990 2991 2992 2992 2992 2992 2992 2990 2987 2984 2985 2985 2984 2983 2982 2982 2981 2984 2984 2984 2984 2984 2983 2982 2981 2981 2980 2983 2983 2983 2983
2975 2977 2979 2982 2983 2983 2983 2982 2985 2986 2987 2987 2987 2987 2987 2988 2987 2987 2987 2984 2983 2981 2979 2978 2977 2977 2977 2976 2975 2973 2972 2972 2972 2972 2972 2972 2972 2972 2972 2971 2971 2972 2971 2971
2972 2973 2976 2979 2980 2978 2980 2980 2982 2983 2984 2984 2984 2983 2983 2983 2982 2982 2980 2979 2978 2976 2975 2973 2971 2970 2970 2968 2966 2965 2964 2964 2963 2962 2961 2961 2961 2960 2960 2960 2960 2962 2963 2961
2970 2973 2976 2978 2977 2978 2978 2977 2979 2980 2980 2981 2980 2979 2977 2977 2976 2975 2973 2973 2971 2970 2970 2969 2967 2965 2964 2962 2961 2958 2957 2955 2954 2953 2953 2952 2950 2950 2949 2949 2950 2949 2950 2950
2972 2972 2975 2975 2975 2977 2975 2975 2977 2976 2976 2976 2975 2975 2974 2973 2970 2969 2968 2966 2965 2963 2963 2962 2962 2961 2959 2957 2955 2954 2952 2950 2946 2945 2945 2944 2943 2942 2940 2941 2942 2941 2941 2940